Time,TemperatureF,DewpointF,PressureIn,WindDirection,WindDirectionDegrees,WindSpeedMPH,WindSpeedGustMPH,Humidity,HourlyPrecipIn,Conditions,Clouds,dailyrainin,SoftwareType,DateUTC
2013-01-28 00:04:00,72.0,67.0,30.19,North,5,1.0,8.0,84,0.00,,,0.00,,2013-01-28 05:04:00,
2013-01-28 00:12:00,72.0,67.0,30.19,North,5,1.0,8.0,84,0.00,,,0.00,,2013-01-28 05:12:00,
2013-01-28 00:22:00,72.0,67.0,30.18,North,5,1.0,6.0,84,0.00,,,0.00,,2013-01-28 05:22:00,
2013-01-28 00:32:00,72.0,67.0,30.18,North,5,1.0,7.0,84,0.00,,,0.00,,2013-01-28 05:32:00,
2013-01-28 00:42:00,72.0,67.0,30.18,North,5,1.0,7.0,84,0.00,,,0.00,,2013-01-28 05:42:00,
2013-01-28 00:52:00,73.0,68.0,30.19,North,5,1.0,5.0,84,0.00,,,0.00,,2013-01-28 05:52:00,
2013-01-28 01:02:00,73.0,68.0,30.19,North,5,1.0,4.0,84,0.00,,,0.00,,2013-01-28 06:02:00,
2013-01-28 01:11:00,73.0,68.0,30.19,North,5,1.0,4.0,84,0.00,,,0.00,,2013-01-28 06:11:00,
2013-01-28 01:22:00,73.0,68.0,30.18,North,5,1.0,7.0,84,0.00,,,0.00,,2013-01-28 06:22:00,
2013-01-28 01:32:00,73.0,68.0,30.18,North,5,2.0,5.0,83,0.00,,,0.00,,2013-01-28 06:32:00,
2013-01-28 01:42:00,73.0,68.0,30.18,North,5,2.0,5.0,83,0.00,,,0.00,,2013-01-28 06:42:00,
2013-01-28 01:52:00,73.0,67.0,30.18,North,5,2.0,6.0,82,0.00,,,0.00,,2013-01-28 06:52:00,
2013-01-28 02:02:00,73.0,67.0,30.18,North,5,1.0,6.0,82,0.00,,,0.00,,2013-01-28 07:02:00,
2013-01-28 02:11:00,73.0,67.0,30.18,North,5,1.0,6.0,82,0.00,,,0.00,,2013-01-28 07:11:00,
2013-01-28 02:22:00,73.0,67.0,30.18,North,5,1.0,5.0,82,0.00,,,0.00,,2013-01-28 07:22:00,
2013-01-28 02:32:00,73.0,67.0,30.17,North,5,2.0,7.0,82,0.00,,,0.00,,2013-01-28 07:32:00,
2013-01-28 02:42:00,73.0,67.0,30.17,North,5,2.0,7.0,82,0.00,,,0.00,,2013-01-28 07:42:00,
2013-01-28 02:52:00,73.0,67.0,30.17,North,5,2.0,6.0,81,0.00,,,0.00,,2013-01-28 07:52:00,
2013-01-28 03:01:00,73.0,66.0,30.17,North,5,2.0,5.0,80,0.00,,,0.00,,2013-01-28 08:01:00,
2013-01-28 03:11:00,73.0,66.0,30.17,North,5,2.0,5.0,80,0.00,,,0.00,,2013-01-28 08:11:00,
2013-01-28 03:21:00,73.0,66.0,30.17,North,5,1.0,5.0,80,0.00,,,0.00,,2013-01-28 08:21:00,
2013-01-28 03:32:00,73.0,66.0,30.17,North,5,1.0,8.0,80,0.00,,,0.00,,2013-01-28 08:32:00,
2013-01-28 03:42:00,73.0,66.0,30.17,North,5,1.0,8.0,80,0.00,,,0.00,,2013-01-28 08:42:00,
2013-01-28 03:52:00,73.0,67.0,30.16,North,5,1.0,9.0,81,0.00,,,0.00,,2013-01-28 08:52:00,
2013-01-28 04:02:00,73.0,67.0,30.17,North,5,2.0,7.0,81,0.00,,,0.00,,2013-01-28 09:02:00,
2013-01-28 04:12:00,73.0,67.0,30.17,North,5,2.0,7.0,81,0.00,,,0.00,,2013-01-28 09:12:00,
2013-01-28 04:22:00,73.0,66.0,30.17,North,5,1.0,6.0,80,0.00,,,0.00,,2013-01-28 09:22:00,
2013-01-28 04:32:00,73.0,66.0,30.16,North,5,1.0,8.0,80,0.00,,,0.00,,2013-01-28 09:32:00,
2013-01-28 04:42:00,73.0,66.0,30.16,North,5,1.0,8.0,80,0.00,,,0.00,,2013-01-28 09:42:00,
2013-01-28 04:52:00,73.0,66.0,30.16,North,5,1.0,5.0,80,0.00,,,0.00,,2013-01-28 09:52:00,
2013-01-28 05:02:00,73.0,66.0,30.16,North,5,1.0,5.0,80,0.00,,,0.00,,2013-01-28 10:02:00,
2013-01-28 05:11:00,73.0,66.0,30.16,North,5,1.0,5.0,80,0.00,,,0.00,,2013-01-28 10:11:00,
2013-01-28 05:21:00,73.0,67.0,30.16,North,5,1.0,4.0,81,0.00,,,0.00,,2013-01-28 10:21:00,
2013-01-28 05:32:00,73.0,67.0,30.16,North,5,1.0,8.0,81,0.00,,,0.00,,2013-01-28 10:32:00,
2013-01-28 05:42:00,73.0,67.0,30.16,North,5,1.0,8.0,81,0.00,,,0.00,,2013-01-28 10:42:00,
2013-01-28 05:52:00,73.0,67.0,30.17,North,5,1.0,4.0,82,0.00,,,0.00,,2013-01-28 10:52:00,
2013-01-28 06:02:00,73.0,67.0,30.17,North,5,0.0,5.0,82,0.00,,,0.00,,2013-01-28 11:02:00,
2013-01-28 06:11:00,73.0,67.0,30.17,North,5,0.0,5.0,82,0.00,,,0.00,,2013-01-28 11:11:00,
2013-01-28 06:22:00,73.0,67.0,30.18,North,5,1.0,7.0,81,0.00,,,0.00,,2013-01-28 11:22:00,
2013-01-28 06:32:00,73.0,66.0,30.18,North,5,2.0,6.0,80,0.00,,,0.00,,2013-01-28 11:32:00,
2013-01-28 06:42:00,73.0,66.0,30.18,North,5,2.0,6.0,80,0.00,,,0.00,,2013-01-28 11:42:00,
2013-01-28 06:52:00,73.0,66.0,30.19,North,5,2.0,6.0,79,0.00,,,0.00,,2013-01-28 11:52:00,
2013-01-28 07:03:00,73.0,66.0,30.19,North,5,2.0,6.0,78,0.00,,,0.00,,2013-01-28 12:03:00,
2013-01-28 07:12:00,73.0,66.0,30.19,North,5,2.0,6.0,78,0.00,,,0.00,,2013-01-28 12:12:00,
2013-01-28 07:23:00,73.0,66.0,30.20,North,5,2.0,6.0,78,0.00,,,0.00,,2013-01-28 12:23:00,
2013-01-28 07:33:00,73.0,66.0,30.20,North,5,0.0,3.0,78,0.00,,,0.00,,2013-01-28 12:33:00,
2013-01-28 07:42:00,73.0,66.0,30.20,North,5,0.0,3.0,78,0.00,,,0.00,,2013-01-28 12:42:00,
2013-01-28 07:52:00,73.0,66.0,30.21,North,5,1.0,5.0,78,0.00,,,0.00,,2013-01-28 12:52:00,
2013-01-28 08:03:00,73.0,65.0,30.21,North,5,2.0,6.0,77,0.00,,,0.00,,2013-01-28 13:03:00,
2013-01-28 08:12:00,73.0,65.0,30.21,North,5,2.0,6.0,77,0.00,,,0.00,,2013-01-28 13:12:00,
2013-01-28 08:23:00,74.0,66.0,30.21,North,5,1.0,8.0,77,0.00,,,0.00,,2013-01-28 13:23:00,
2013-01-28 08:33:00,74.0,66.0,30.22,North,5,2.0,5.0,77,0.00,,,0.00,,2013-01-28 13:33:00,
2013-01-28 08:42:00,74.0,66.0,30.22,North,5,2.0,5.0,77,0.00,,,0.00,,2013-01-28 13:42:00,
2013-01-28 08:53:00,74.0,66.0,30.22,North,5,1.0,10.0,77,0.00,,,0.00,,2013-01-28 13:53:00,
2013-01-28 09:03:00,75.0,68.0,30.22,North,5,1.0,7.0,78,0.00,,,0.00,,2013-01-28 14:03:00,
2013-01-28 09:12:00,75.0,68.0,30.22,North,5,1.0,7.0,78,0.00,,,0.00,,2013-01-28 14:12:00,
2013-01-28 09:23:00,75.0,67.0,30.23,North,5,1.0,5.0,77,0.00,,,0.00,,2013-01-28 14:23:00,
2013-01-28 09:33:00,76.0,68.0,30.23,North,5,1.0,8.0,76,0.00,,,0.00,,2013-01-28 14:33:00,
2013-01-28 09:43:00,76.0,68.0,30.23,North,5,1.0,8.0,76,0.00,,,0.00,,2013-01-28 14:43:00,
2013-01-28 09:53:00,77.0,68.0,30.23,North,5,1.0,7.0,73,0.00,,,0.00,,2013-01-28 14:53:00,
2013-01-28 10:03:00,78.0,69.0,30.23,North,5,1.0,5.0,73,0.00,,,0.00,,2013-01-28 15:03:00,
2013-01-28 10:13:00,78.0,69.0,30.23,North,5,1.0,5.0,73,0.00,,,0.00,,2013-01-28 15:13:00,
2013-01-28 10:23:00,78.0,68.0,30.24,North,5,2.0,6.0,71,0.00,,,0.00,,2013-01-28 15:23:00,
2013-01-28 10:33:00,78.0,67.0,30.24,North,5,1.0,8.0,70,0.00,,,0.00,,2013-01-28 15:33:00,
2013-01-28 10:43:00,78.0,67.0,30.24,North,5,1.0,8.0,70,0.00,,,0.00,,2013-01-28 15:43:00,
2013-01-28 10:53:00,79.0,68.0,30.24,North,5,3.0,9.0,70,0.00,,,0.00,,2013-01-28 15:53:00,
2013-01-28 11:04:00,80.0,69.0,30.24,North,5,2.0,8.0,70,0.00,,,0.00,,2013-01-28 16:04:00,
2013-01-28 11:12:00,80.0,69.0,30.24,North,5,2.0,8.0,70,0.00,,,0.00,,2013-01-28 16:12:00,
2013-01-28 11:22:00,80.0,68.0,30.24,North,5,3.0,7.0,67,0.00,,,0.00,,2013-01-28 16:22:00,
2013-01-28 11:32:00,80.0,68.0,30.24,North,5,2.0,8.0,67,0.00,,,0.00,,2013-01-28 16:32:00,
2013-01-28 11:43:00,80.0,68.0,30.24,North,5,2.0,8.0,67,0.00,,,0.00,,2013-01-28 16:43:00,
2013-01-28 11:53:00,81.0,69.0,30.24,North,5,1.0,8.0,67,0.00,,,0.00,,2013-01-28 16:53:00,
2013-01-28 12:02:00,82.0,69.0,30.24,North,5,1.0,7.0,66,0.00,,,0.00,,2013-01-28 17:02:00,
2013-01-28 12:12:00,82.0,69.0,30.24,North,5,1.0,7.0,66,0.00,,,0.00,,2013-01-28 17:12:00,
2013-01-28 12:23:00,82.0,69.0,30.23,North,5,3.0,9.0,65,0.00,,,0.00,,2013-01-28 17:23:00,
2013-01-28 12:33:00,82.0,69.0,30.23,North,5,2.0,8.0,65,0.00,,,0.00,,2013-01-28 17:33:00,
2013-01-28 12:42:00,82.0,69.0,30.23,North,5,2.0,8.0,65,0.00,,,0.00,,2013-01-28 17:42:00,
2013-01-28 12:53:00,81.0,69.0,30.22,North,5,2.0,9.0,67,0.00,,,0.00,,2013-01-28 17:53:00,
2013-01-28 13:03:00,82.0,69.0,30.21,North,5,2.0,7.0,65,0.00,,,0.00,,2013-01-28 18:03:00,
2013-01-28 13:12:00,82.0,69.0,30.21,North,5,2.0,7.0,65,0.00,,,0.00,,2013-01-28 18:12:00,
2013-01-28 13:23:00,83.0,70.0,30.20,North,5,2.0,6.0,65,0.00,,,0.00,,2013-01-28 18:23:00,
2013-01-28 13:33:00,82.0,69.0,30.20,North,5,2.0,9.0,65,0.00,,,0.00,,2013-01-28 18:33:00,
2013-01-28 13:42:00,82.0,69.0,30.20,North,5,2.0,9.0,65,0.00,,,0.00,,2013-01-28 18:42:00,
2013-01-28 13:53:00,81.0,69.0,30.19,North,5,2.0,8.0,66,0.00,,,0.00,,2013-01-28 18:53:00,
2013-01-28 14:02:00,81.0,69.0,30.19,North,5,3.0,10.0,66,0.00,,,0.00,,2013-01-28 19:02:00,
2013-01-28 14:12:00,81.0,69.0,30.19,North,5,3.0,10.0,66,0.00,,,0.00,,2013-01-28 19:12:00,
2013-01-28 14:22:00,81.0,68.0,30.18,North,5,2.0,6.0,65,0.00,,,0.00,,2013-01-28 19:22:00,
2013-01-28 14:33:00,81.0,69.0,30.18,North,5,2.0,7.0,67,0.00,,,0.00,,2013-01-28 19:33:00,
2013-01-28 14:42:00,81.0,69.0,30.18,North,5,2.0,7.0,67,0.00,,,0.00,,2013-01-28 19:42:00,
2013-01-28 14:53:00,81.0,69.0,30.17,North,5,2.0,8.0,67,0.00,,,0.00,,2013-01-28 19:53:00,
2013-01-28 15:03:00,81.0,69.0,30.17,North,5,2.0,9.0,67,0.00,,,0.00,,2013-01-28 20:03:00,
2013-01-28 15:12:00,81.0,69.0,30.17,North,5,2.0,9.0,67,0.00,,,0.00,,2013-01-28 20:12:00,
2013-01-28 15:22:00,81.0,69.0,30.16,North,5,2.0,7.0,67,0.00,,,0.00,,2013-01-28 20:22:00,
2013-01-28 15:33:00,80.0,68.0,30.16,North,360,2.0,8.0,68,0.00,,,0.00,,2013-01-28 20:33:00,
2013-01-28 15:42:00,80.0,68.0,30.16,North,360,2.0,8.0,68,0.00,,,0.00,,2013-01-28 20:42:00,
2013-01-28 15:53:00,80.0,69.0,30.16,North,5,2.0,9.0,69,0.00,,,0.00,,2013-01-28 20:53:00,
2013-01-28 16:03:00,80.0,69.0,30.16,North,5,2.0,8.0,69,0.00,,,0.00,,2013-01-28 21:03:00,
2013-01-28 16:12:00,80.0,69.0,30.16,North,5,2.0,8.0,69,0.00,,,0.00,,2013-01-28 21:12:00,
2013-01-28 16:23:00,79.0,68.0,30.16,North,5,1.0,6.0,69,0.00,,,0.00,,2013-01-28 21:23:00,
2013-01-28 16:33:00,79.0,68.0,30.16,North,5,2.0,9.0,70,0.00,,,0.00,,2013-01-28 21:33:00,
2013-01-28 16:43:00,79.0,68.0,30.16,North,5,2.0,9.0,70,0.00,,,0.00,,2013-01-28 21:43:00,
2013-01-28 16:53:00,79.0,69.0,30.16,North,5,2.0,7.0,71,0.00,,,0.00,,2013-01-28 21:53:00,
2013-01-28 17:02:00,78.0,68.0,30.16,North,5,1.0,7.0,71,0.00,,,0.00,,2013-01-28 22:02:00,
2013-01-28 17:12:00,78.0,68.0,30.16,North,5,1.0,7.0,71,0.00,,,0.00,,2013-01-28 22:12:00,
2013-01-28 17:23:00,78.0,69.0,30.16,North,5,1.0,7.0,73,0.00,,,0.00,,2013-01-28 22:23:00,
2013-01-28 17:33:00,78.0,69.0,30.16,North,5,1.0,7.0,73,0.00,,,0.00,,2013-01-28 22:33:00,
2013-01-28 17:42:00,78.0,69.0,30.16,North,5,1.0,7.0,73,0.00,,,0.00,,2013-01-28 22:42:00,
2013-01-28 17:52:00,77.0,68.0,30.16,North,5,2.0,7.0,74,0.00,,,0.00,,2013-01-28 22:52:00,
2013-01-28 18:02:00,77.0,68.0,30.16,North,5,2.0,6.0,75,0.00,,,0.00,,2013-01-28 23:02:00,
2013-01-28 18:12:00,77.0,68.0,30.16,North,5,2.0,6.0,75,0.00,,,0.00,,2013-01-28 23:12:00,
2013-01-28 18:22:00,76.0,68.0,30.16,North,5,1.0,5.0,76,0.00,,,0.00,,2013-01-28 23:22:00,
2013-01-28 18:32:00,76.0,69.0,30.17,North,5,1.0,8.0,78,0.00,,,0.00,,2013-01-28 23:32:00,
2013-01-28 18:42:00,76.0,69.0,30.17,North,5,1.0,8.0,78,0.00,,,0.00,,2013-01-28 23:42:00,
2013-01-28 18:53:00,75.0,68.0,30.17,North,5,1.0,6.0,79,0.00,,,0.00,,2013-01-28 23:53:00,
2013-01-28 19:02:00,75.0,68.0,30.17,North,5,2.0,8.0,79,0.00,,,0.00,,2013-01-29 00:02:00,
2013-01-28 19:12:00,75.0,68.0,30.17,North,5,2.0,8.0,79,0.00,,,0.00,,2013-01-29 00:12:00,
2013-01-28 19:22:00,75.0,68.0,30.17,North,5,1.0,6.0,79,0.00,,,0.00,,2013-01-29 00:22:00,
2013-01-28 19:32:00,75.0,68.0,30.17,North,5,1.0,5.0,80,0.00,,,0.00,,2013-01-29 00:32:00,
2013-01-28 19:42:00,75.0,68.0,30.17,North,5,1.0,5.0,80,0.00,,,0.00,,2013-01-29 00:42:00,
2013-01-28 19:52:00,74.0,67.0,30.17,North,5,1.0,6.0,80,0.00,,,0.00,,2013-01-29 00:52:00,
2013-01-28 20:02:00,74.0,68.0,30.17,North,5,1.0,6.0,81,0.00,,,0.00,,2013-01-29 01:02:00,
2013-01-28 20:12:00,74.0,68.0,30.17,North,5,1.0,6.0,81,0.00,,,0.00,,2013-01-29 01:12:00,
2013-01-28 20:23:00,74.0,68.0,30.17,North,5,2.0,5.0,81,0.00,,,0.00,,2013-01-29 01:23:00,
2013-01-28 20:32:00,74.0,68.0,30.18,North,5,1.0,4.0,81,0.00,,,0.00,,2013-01-29 01:32:00,
2013-01-28 20:42:00,74.0,68.0,30.18,North,5,1.0,4.0,81,0.00,,,0.00,,2013-01-29 01:42:00,
2013-01-28 20:53:00,74.0,68.0,30.18,North,5,0.0,6.0,81,0.00,,,0.00,,2013-01-29 01:53:00,
2013-01-28 21:02:00,74.0,68.0,30.18,North,5,1.0,8.0,81,0.00,,,0.00,,2013-01-29 02:02:00,
2013-01-28 21:12:00,74.0,68.0,30.18,North,5,1.0,8.0,81,0.00,,,0.00,,2013-01-29 02:12:00,
2013-01-28 21:22:00,74.0,68.0,30.19,North,5,1.0,8.0,82,0.00,,,0.00,,2013-01-29 02:22:00,
2013-01-28 21:33:00,74.0,68.0,30.18,North,5,0.0,7.0,82,0.00,,,0.00,,2013-01-29 02:33:00,
2013-01-28 21:42:00,74.0,68.0,30.18,North,5,0.0,7.0,82,0.00,,,0.00,,2013-01-29 02:42:00,
2013-01-28 21:53:00,74.0,68.0,30.18,North,5,1.0,6.0,83,0.00,,,0.00,,2013-01-29 02:53:00,
2013-01-28 22:03:00,74.0,68.0,30.18,North,5,1.0,6.0,83,0.00,,,0.00,,2013-01-29 03:03:00,
2013-01-28 22:12:00,74.0,68.0,30.18,North,5,1.0,6.0,83,0.00,,,0.00,,2013-01-29 03:12:00,
2013-01-28 22:22:00,74.0,68.0,30.18,North,5,1.0,5.0,83,0.00,,,0.00,,2013-01-29 03:22:00,
2013-01-28 22:32:00,74.0,68.0,30.18,North,5,0.0,3.0,83,0.00,,,0.00,,2013-01-29 03:32:00,
2013-01-28 22:42:00,74.0,68.0,30.18,North,5,0.0,3.0,83,0.00,,,0.00,,2013-01-29 03:42:00,
2013-01-28 22:53:00,74.0,69.0,30.18,North,5,2.0,5.0,84,0.00,,,0.00,,2013-01-29 03:53:00,
2013-01-28 23:02:00,74.0,69.0,30.18,North,5,1.0,5.0,84,0.00,,,0.00,,2013-01-29 04:02:00,
2013-01-28 23:12:00,74.0,69.0,30.18,North,5,1.0,5.0,84,0.00,,,0.00,,2013-01-29 04:12:00,
2013-01-28 23:22:00,74.0,69.0,30.18,North,5,1.0,5.0,84,0.00,,,0.00,,2013-01-29 04:22:00,
2013-01-28 23:32:00,74.0,68.0,30.18,North,5,0.0,4.0,83,0.00,,,0.00,,2013-01-29 04:32:00,
2013-01-28 23:42:00,74.0,68.0,30.18,North,5,0.0,4.0,83,0.00,,,0.00,,2013-01-29 04:42:00,
2013-01-28 23:52:00,74.0,68.0,30.18,North,5,0.0,5.0,83,0.00,,,0.00,,2013-01-29 04:52:00,